Regional Weather Roundup
Issued by NWS Cleveland, OH

Home | Current Version | Previous Version | Graphics & Text | Print | Product List | Glossary On
Versions: 1 2 3 4 5 6 7 8 9 10 11 12 13 14 15 16 17 18 19 20 21 22 23 24 25 26 27 28 29 30 31 32 33 34 35 36 37 38 39 40 41 42 43 44 45 46 47 48 49 50
000
ASUS41 KCLE 270010
RWRCLE
OHIO REGIONAL WEATHER ROUNDUP
NATIONAL WEATHER SERVICE WILMINGTON, OH
700 PM EST FRI DEC 26 2014

NOTE: "FAIR" INDICATES FEW OR NO CLOUDS BELOW 12,000 FEET WITH NO
SIGNIFICANT WEATHER AND/OR OBSTRUCTIONS TO VISIBILITY.

OHZ001>008-015>018-024>027-034-035-043-044-270100-
   NORTHWEST OHIO

CITY           SKY/WX    TMP DP  RH WIND       PRES   REMARKS
DEFIANCE       MOCLDY    43  39  86 S5        30.12R
FINDLAY        PTCLDY    40  35  83 S9        30.13R
TOLEDO EXPRESS MOCLDY    42  38  85 S3        30.12R
TOLEDO METCALF MOCLDY    40  35  83 S7        30.14R
LIMA           PTCLDY    45  36  70 S7        30.13R
$$

OHZ009>014-019>023-028>033-038-089-270100-
   NORTHEAST OHIO

CITY           SKY/WX    TMP DP  RH WIND       PRES   REMARKS
CLE-HOPKINS    CLOUDY    45  35  68 S10       30.19R
CLE-LAKEFRONT  MOCLDY    47  35  63 S14       30.16R
CUY CO. ARPT   MOCLDY    48  37  66 SW13      30.17R
LORAIN-ELYRIA  CLOUDY    43  36  76 S9        30.17R
ASHTABULA      MOCLDY    43  33  68 S5        30.17R
AKRON-CANTON   CLOUDY    42  33  70 S8        30.18R
WOOSTER        MOCLDY    41  34  76 S8        30.19R
MANSFIELD      MOCLDY    41  36  82 S10       30.16R
YOUNGSTOWN     CLOUDY    44  32  62 SW8       30.18R
$$

OHZ042-051>053-060>062-070>072-077>081-270100-
  SOUTHWEST OHIO

CITY           SKY/WX    TMP DP  RH WIND       PRES   REMARKS
CINC-COVINGTON CLOUDY    48  33  56 S8        30.17S
CINC-LUNKEN    CLOUDY    45  35  68 S5        30.19S
HAMILTON       CLOUDY    50  34  54 S5        30.18S
DAYTON         MOCLDY    46  35  65 S9        30.17R
WRIGHT-PAT AFB MOCLDY    43  35  72 CALM      30.17R
DAYTON GENERAL CLOUDY    44  35  70 S6        30.17R
WILMINGTON     CLOUDY    43  34  70 S7        30.18S
$$

OHZ036-037-039>041-045>050-054>059-063>069-073>076-082>088-270100-
  CENTRAL AND SOUTHEAST OHIO

CITY           SKY/WX    TMP DP  RH WIND       PRES   REMARKS
COLUMBUS       CLOUDY    44  35  70 S7        30.18S
OSU AIRPORT    CLOUDY    45  36  70 S7        30.17F
BOLTON FIELD   CLOUDY    42  37  80 S6        30.19S
RICKENBACK AFB CLOUDY    41  35  79 SE5       30.19S
NEWARK         CLOUDY    44  34  67 S3        30.19S
MARION         MOCLDY    42  35  76 S10       30.16R
LANCASTER      CLOUDY    44  35  70 S5        30.20S
ZANESVILLE     CLOUDY    44  33  65 S9        30.21S
NEW PHILLY     MOCLDY    42  33  70 SE5       30.21R
$$



USA.gov is the U.S. government's official web portal to all federal, state and local government web resources and services.